Findlay, OH

12:06 AM EDT on March 27, 2017 (GMT -0400)
Findlay

Weather History for KFDY - October, 2014

Change the Weather History Date:

Thursday, October 23, 2014

  Actual Average Record
Temperature  
Mean Temperature 45 °F -  
Max Temperature 57 °F 60 °F 81 °F (1963)
Min Temperature 33 °F 40 °F 24 °F (1969)
Degree Days  
Heating Degree Days 20    
Moisture  
Dew Point 38 °F    
Average Humidity 82    
Maximum Humidity 97    
Minimum Humidity 53    
Precipitation  
Precipitation 0.00 in - - ()
Sea Level Pressure  
Sea Level Pressure 30.21 in    
Wind  
Wind Speed 3 mph (West)    
Max Wind Speed 7 mph    
Max Gust Speed -    
Visibility 5 miles    
Events Fog    
Averages and records for this station are not official NWS values.
T = Trace of Precipitation, MM = Missing Value Source: NWS Daily Summary

Daily Weather History Graph

Daily Weather History Graph

Search for Another Location

Airport or City:

Trip Planner

Search our weather history database for the weather conditions in past years. The results will help you decide how hot, cold, wet, or windy it might be!

Date:

Astronomy

Oct. 23, 2014 Rise Set
Actual Time 7:55 AM EDT 6:42 PM EDT
Civil Twilight 7:27 AM EDT 7:10 PM EDT
Nautical Twilight 6:54 AM EDT 7:42 PM EDT
Astronomical Twilight 6:23 AM EDT 8:14 PM EDT
Moon 7:33 AM EDT (10/23) 6:43 PM EDT (10/23)
Length of Visible Light 11h 43m
Length of Day
10h 47m
Waning Crescent, 0% of the Moon is Illuminated
Oct 23
Waning Crescent
Oct 23
New
Oct 30
First Quarter
Nov 6
Full
Nov 14
Last Quarter

Hourly Weather History & Observations

Time (EDT) Temp. Windchill Dew Point Humidity Pressure Visibility Wind Dir Wind Speed Gust Speed Precip Events Conditions
12:53 AM 44.1 °F 42.5 °F 39.0 °F 82% 30.26 in 10.0 mi WNW 3.5 mph - N/A   Mostly Cloudy
1:17 AM 44.1 °F 41.5 °F 39.0 °F 82% 30.26 in 10.0 mi NW 4.6 mph - N/A   Overcast
1:53 AM 44.1 °F 41.5 °F 39.0 °F 82% 30.26 in 10.0 mi WNW 4.6 mph - N/A   Overcast
2:53 AM 44.1 °F 42.5 °F 39.0 °F 82% 30.25 in 10.0 mi NNW 3.5 mph - N/A   Overcast
3:27 AM 41.0 °F 38.0 °F 37.0 °F 86% 30.25 in 9.0 mi WNW 4.6 mph - N/A   Scattered Clouds
3:53 AM 39.9 °F 36.7 °F 37.0 °F 89% 30.25 in 7.0 mi WNW 4.6 mph - N/A   Clear
4:53 AM 37.9 °F 35.5 °F 35.1 °F 89% 30.25 in 4.0 mi West 3.5 mph - N/A   Clear
5:05 AM 37.9 °F 35.5 °F 35.1 °F 89% 30.25 in 1.8 mi West 3.5 mph - N/A   Clear
5:22 AM 36.0 °F 32.1 °F 34.0 °F 93% 30.25 in 2.5 mi West 4.6 mph - N/A   Clear
5:45 AM 36.0 °F 32.1 °F 33.1 °F 89% 30.24 in 1.8 mi West 4.6 mph - N/A   Clear
5:51 AM 33.8 °F 28.6 °F 32.0 °F 93% 30.24 in 3.0 mi West 5.8 mph - N/A   Clear
5:53 AM 34.0 °F 28.8 °F 32.0 °F 92% 30.25 in 3.0 mi West 5.8 mph - N/A   Clear
6:02 AM 36.0 °F 30.3 °F 34.0 °F 93% 30.24 in 2.5 mi West 6.9 mph - N/A   Partly Cloudy
6:09 AM 36.0 °F 31.1 °F 34.0 °F 93% 30.24 in 1.8 mi WNW 5.8 mph - N/A   Mostly Cloudy
6:19 AM 36.0 °F 33.3 °F 34.0 °F 93% 30.24 in 0.5 mi WNW 3.5 mph - N/A Fog Fog
6:53 AM 35.1 °F 32.2 °F 33.1 °F 92% 30.25 in 0.2 mi NW 3.5 mph - N/A Fog Fog
7:53 AM 35.1 °F - 32.0 °F 89% 30.25 in 0.2 mi Calm Calm - N/A Fog Fog
8:53 AM 35.1 °F 31.0 °F 33.1 °F 92% 30.25 in 0.2 mi WNW 4.6 mph - N/A Fog Fog
9:53 AM 37.9 °F - 37.0 °F 97% 30.26 in 0.2 mi Calm Calm - N/A Fog Fog
10:53 AM 42.1 °F - 39.9 °F 92% 30.26 in 0.2 mi Calm Calm - N/A Fog Fog
11:53 AM 43.0 °F - 41.0 °F 93% 30.27 in 0.2 mi Calm Calm - N/A Fog Fog
12:16 PM 44.1 °F 42.5 °F 42.1 °F 93% 30.25 in 0.8 mi West 3.5 mph - N/A   Overcast
12:24 PM 44.1 °F - 42.1 °F 93% 30.25 in 1.8 mi Calm Calm - N/A   Overcast
12:31 PM 44.1 °F - 42.1 °F 93% 30.25 in 3.0 mi Calm Calm - N/A   Overcast
12:49 PM 46.4 °F 44.3 °F 42.8 °F 87% 30.24 in 6.0 mi West 4.6 mph - N/A   Overcast
12:53 PM 46.0 °F 43.9 °F 43.0 °F 89% 30.24 in 6.0 mi WSW 4.6 mph - N/A   Overcast
1:10 PM 48.9 °F - 44.1 °F 83% 30.22 in 8.0 mi Variable 3.5 mph - N/A   Mostly Cloudy
1:30 PM 50.0 °F - 42.1 °F 74% 30.22 in 9.0 mi Variable 3.5 mph - N/A   Scattered Clouds
1:53 PM 52.0 °F - 43.0 °F 71% 30.21 in 10.0 mi WNW 4.6 mph - N/A   Partly Cloudy
2:53 PM 55.0 °F - 42.1 °F 62% 30.17 in 10.0 mi Calm Calm - N/A   Clear
3:53 PM 57.9 °F - 42.1 °F 56% 30.15 in 10.0 mi North 4.6 mph - N/A   Clear
4:53 PM 57.0 °F - 39.9 °F 53% 30.14 in 10.0 mi Variable 3.5 mph - N/A   Clear
5:41 PM 55.9 °F - 39.9 °F 55% 30.14 in 1.8 mi West 4.6 mph - N/A   Haze
5:53 PM 55.0 °F - 39.9 °F 57% 30.14 in 2.5 mi Calm Calm - N/A   Haze
6:02 PM 55.0 °F - 39.0 °F 55% 30.14 in 5.0 mi Calm Calm - N/A   Haze
6:43 PM 53.1 °F - 39.0 °F 59% 30.13 in 1.8 mi Calm Calm - N/A   Haze
6:51 PM 51.8 °F - 39.2 °F 62% 30.13 in 3.0 mi Calm Calm - N/A   Haze
6:52 PM 52.0 °F - 39.0 °F 61% 30.13 in 3.0 mi Calm Calm - N/A   Haze
7:53 PM 46.9 °F - 39.9 °F 77% 30.12 in 10.0 mi Calm Calm - N/A   Clear
8:53 PM 43.0 °F - 39.0 °F 86% 30.13 in 10.0 mi Calm Calm - N/A   Clear
9:53 PM 42.1 °F - 39.0 °F 89% 30.13 in 10.0 mi Calm Calm - N/A   Clear
10:53 PM 39.9 °F 37.8 °F 36.0 °F 86% 30.11 in 8.0 mi South 3.5 mph - N/A   Clear
11:53 PM 39.9 °F 37.8 °F 37.0 °F 89% 30.10 in 7.0 mi South 3.5 mph - N/A   Clear